Date,TemperatureHighF,TemperatureAvgF,TemperatureLowF,DewpointHighF,DewpointAvgF,DewpointLowF,HumidityHigh,HumidityAvg,HumidityLow,PressureMaxIn,PressureMinIn,WindSpeedMaxMPH,WindSpeedAvgMPH,GustSpeedMaxMPH,PrecipitationSumIn
2013-5-1,85.8,80.6,71.7,73.9,72.1,69.3,93,76,66,29.99,29.92,7,1,13,0.44
2013-5-2,74.0,71.4,69.2,70.4,69.3,67.5,96,93,85,29.90,29.80,13,3,17,2.63
2013-5-3,89.5,75.9,69.1,74.3,70.7,67.7,97,85,55,29.82,29.71,10,0,12,0.81
2013-5-5,86.5,77.8,66.8,68.2,60.2,53.7,95,58,41,29.92,29.78,3,0,0,0.00
2013-5-6,78.5,68.2,59.5,64.2,58.7,54.7,89,73,57,29.95,29.91,10,0,0,0.00
2013-5-7,86.2,74.2,62.0,67.0,60.9,56.4,84,66,42,30.02,29.96,5,0,0,0.00
2013-5-8,82.8,75.4,65.9,65.4,63.0,59.8,81,66,54,30.13,30.04,4,1,0,0.00
2013-5-9,79.0,73.3,68.2,73.6,67.7,62.1,88,83,79,30.11,30.07,2,0,0,0.00
2013-5-10,85.2,80.6,74.6,74.6,73.3,70.8,90,79,66,30.08,30.01,10,2,15,0.00
2013-5-11,87.1,79.3,74.4,77.6,74.3,72.2,93,85,67,30.06,30.00,9,2,15,0.33
2013-5-12,72.5,71.8,71.1,71.0,70.4,69.7,96,95,95,30.03,29.95,0,0,0,1.64
2013-5-13,90.8,83.2,70.9,74.4,71.5,67.9,97,70,49,30.08,29.99,5,1,0,0.01
2013-5-14,81.7,77.9,74.0,66.7,60.8,56.9,76,56,47,30.17,30.06,11,3,16,0.00
2013-5-15,82.8,78.3,72.6,66.6,62.8,57.9,68,60,49,30.19,30.09,13,3,15,0.00
2013-5-16,84.1,76.6,67.7,66.9,63.1,59.5,82,64,49,30.11,30.03,9,2,13,0.00
2013-5-17,86.3,77.5,70.5,74.1,70.3,63.4,90,79,63,30.09,30.00,11,1,13,0.03
2013-5-18,86.1,78.8,72.6,75.8,72.3,69.7,95,81,66,30.10,30.03,12,2,14,0.02
2013-5-19,87.2,80.2,73.5,72.2,70.5,68.2,87,73,59,30.10,30.00,10,2,13,0.00
2013-5-20,80.4,75.6,68.7,75.9,72.3,66.7,96,90,79,30.08,29.97,8,0,15,6.90
2013-5-21,83.6,75.7,69.0,75.2,71.6,67.2,96,88,68,30.05,29.93,12,2,19,0.19
2013-5-22,86.8,78.2,73.4,75.9,72.8,69.4,95,84,62,29.97,29.89,11,1,14,0.36
2013-5-23,96.0,82.7,73.9,76.6,74.0,65.5,95,77,38,30.00,29.90,8,1,0,0.00
2013-5-24,92.6,83.7,76.3,77.4,73.9,66.7,94,74,49,30.05,29.94,9,1,13,0.00
2013-5-25,86.2,80.4,73.5,75.3,69.5,65.3,94,71,52,30.16,30.03,14,2,17,0.16
2013-5-26,85.4,79.4,72.4,69.2,66.0,60.3,78,64,55,30.17,30.10,12,2,16,0.00
2013-5-27,85.3,79.7,75.7,73.5,70.3,63.8,85,73,64,30.15,30.06,13,3,16,0.02
2013-5-28,83.8,79.1,75.7,75.3,73.3,71.7,92,83,72,30.11,30.04,16,4,20,0.13
2013-5-29,82.2,76.5,71.5,75.7,72.6,68.9,96,88,67,30.09,30.01,13,2,22,4.00
2013-5-30,81.6,78.0,73.8,75.7,72.7,68.7,94,84,75,30.08,30.00,20,4,28,0.75
2013-5-31,84.4,79.0,75.5,76.5,74.3,71.6,95,86,74,30.06,30.00,14,4,16,0.92